Training

Spin Video     https://www.youtube.com/watch?v=Vj8vdWBMePM&list=UULpWoZCi_X3hPwW6J_RsFEg     … [Read More...]

Weather

METAR FOR KCHA (Issued: Fri, November 28th 2014 7:53 PM UTC):
KCHA 281953Z 00000KT 10SM CLR 07/M10 A3031 RMK AO2 SLP269 T00721100

Accomplishments

Marvin Mueller

Congratulations to Marvin Mueller our newest private pilot. Marvin passed his check ride on Friday March 8th. … [Read More...]

Congrats to Randy Sexton

Congratulations to Randy Sexton on becoming our newest Private Pilot at Hixson Aviation. Randy completed his checkride on Monday, March 4, 2013. … [Read More...]

Dallas Bay Skypark - 1A0